Zurück zum Katalog

STARLINK-35387

AktivKommunikationVLEO
NORAD 65909·PAYLOAD·🇺🇸 United States

Gestartet Oct 7, 2025 von Cape Canaveral Space Force Station

Loading…

Nächste Überflüge (nächste 24 Stunden)

TLE

AktuellSource: CelesTrak SupGP

Epoche: Sep 14, 2026, 23:18 UTC

1 65909C 25224AD  26257.97131944 -.00025995  00000+0 -76782-3 0  2575
2 65909  53.1587 211.2022 0001342  92.9380  46.0127 15.34411624    13

Verfolge STARLINK-35387 in Echtzeit mit AllMySat

Download on the App Store